Main page
Satellite images Climate Cyclones Lightning AirportsFAQ Languages Contact Newsletter About
Weather : Europe Africa North America South America Asia Australia-Oceania Others

mandalay-mm, Mandalay, Mandalay International Airport

48042

latitude: , longitude: Myanmar, elevation: 21-59N m


METAR: VYMD 200730Z 35008KT 6000 HZ SCT020 40/18 Q1003